Home > Weather > Moreno Valley > Past weeks

Flag for USA Past Weather in Moreno Valley, California, USA — Yesterday and Last 2 Weeks

Now
72 °F

Sunny.


Feels Like: 76 °F
Forecast: 66 / 97 °F
Wind: No wind

Location: Riverside / March Air Force Base

Current Time: Jun 29, 2016 at 7:41:57 AM

Latest Report: Jun 29, 2016 at 6:58 AM


Visibility: 10 mi

Pressure: 29.89 "Hg

Humidity: 63%

Dew Point: 59 °F

Location of Moreno ValleyLocation

Past Weather in Moreno Valley — Graph

°F

Moreno Valley Temperature Yesterday

Maximum temperature yesterday: 99 °F (at 1:58 PM)
Minimum temperature yesterday: 71 °F (at 4:58 AM)
Average temperature yesterday: 84 °F

High & Low Weather Summary for the Past Weeks

 TemperatureHumidityPressure
High111 °F (Jun 20, 1:58 PM)100% (Jun 15, 2:03 AM)30.04 "Hg (Jun 15, 2:03 AM)
Low52 °F (Jun 16, 5:58 AM)6% (Jun 19, 12:58 PM)29.78 "Hg (Jun 25, 4:58 PM)
Average78 °F46%29.91 "Hg
* Reported Jun 14 5:58 AM — Jun 29 5:58 AM, Moreno Valley, Weather by CustomWeather, © 2016

Note: Actual official high and low records may vary slightly from our data, if they occured in-between our weather recording intervals... More about our weather records

Advertising

Moreno Valley Weather History for the Previous 24 Hours

Scroll right to see more
 ConditionsComfort  
Time TempWeatherWind HumidityBarometerVisibility
5:58 AM
Wed, Jun 29
67 °FClear.3 mph67%29.89 "Hg10 mi
4:58 AM67 °FClear.No wind66%29.88 "Hg10 mi
3:58 AM69 °FClear.No wind66%29.88 "Hg10 mi
2:58 AM71 °FClear.3 mph64%29.88 "Hg10 mi
1:58 AM71 °FClear.5 mph60%29.89 "Hg10 mi
12:58 AM72 °FClear.1 mph59%29.89 "Hg10 mi
11:58 PM
Tue, Jun 28
75 °FClear.No wind55%29.90 "Hg10 mi
10:58 PM77 °FClear.3 mph50%29.90 "Hg10 mi
9:58 PM79 °FClear.5 mph48%29.90 "Hg10 mi
8:58 PM81 °FSunny.No wind46%29.89 "Hg10 mi
7:58 PM84 °FSunny.7 mph46%29.88 "Hg10 mi
6:58 PM89 °FSunny.15 mph35%29.86 "Hg10 mi
5:58 PM92 °FSunny.22 mph28%29.85 "Hg10 mi
4:59 PM96 °FSunny.20 mph22%29.86 "Hg10 mi
3:58 PM98 °FSunny.17 mph22%29.86 "Hg10 mi
2:58 PM98 °FSunny.14 mph25%29.88 "Hg10 mi
1:58 PM99 °FSunny.15 mph27%29.89 "Hg10 mi
12:58 PM98 °FPassing clouds.10 mph24%29.91 "Hg10 mi
11:58 AM97 °FSunny.9 mph25%29.91 "Hg10 mi
10:58 AM93 °FSunny.6 mph30%29.93 "Hg10 mi
9:58 AM88 °FSunny.2 mph35%29.94 "Hg10 mi
8:58 AM83 °FPassing clouds.No wind45%29.95 "Hg10 mi
7:58 AM78 °FSunny.3 mph58%29.95 "Hg10 mi
Weather by CustomWeather, © 2016

See weather overviewHow to use our weather pages